Location: Krakow
(50.0830°N, 19.9170°E)
Time: 09:41:41
(UTC+01:00)

Transit 2A - Pass Details

Date: 15 February 2023
Orbit: 591 x 964 km, 66.7° (Epoch: 21 March)

Event Time Altitude Azimuth Distance (km) Brightness Sun altitude
Rises 20:53:08 0° 323° (NW) 3,465 10.2 -37.4°
Reaches altitude 10° 20:55:45 10° 331° (NNW) 2,574 9.3 -37.7°
Enters shadow 20:58:22 24° 348° (NNW) 1,799 8.1 -38.1°
Maximum altitude 21:01:23 39° 39° (NE) 1,379 - -38.5°
Drops below altitude 10° 21:07:17 10° 107° (ESE) 2,695 - -39.3°
Sets 21:10:04 0° 115° (ESE) 3,645 - -39.7°
